[[{"header":{"parameterUnit":"m.s-1","parameterCategory":1,"la1":30.2991,"la2":30.254,"lo1":-89.0895,"lo2":-89.0444,"dy":0.0017,"dx":0.0017,"nx":28,"ny":28,"refTime":"2025-03-19T09:00:00:Z","depth":0,"parameterNumber":2,"parameterNumberName":"U-component_of_WINDS"},"data":[0,0,0,0,0,0,0,0,0,0,0,0,0,0,0,0,0,0,0,0,0,0,0,0,0,0,0,0,0,0,0,0,0,0,0,0,0,0,0,0,0,0,0,0,0,0,0,0,0,0,0,0,0,0,0,0,0,0,0.0009,0.0008,0,-0.0028,-0.0028,-0.0029,0.003,0.0032,0.0034,0.0036,-0.0005,-0.0008,-0.0011,0,0,0,0,0,0,0,0,0,0,0,0,0,0.0128,0.0125,0.0009,0.0008,0.0008,-0.0028,-0.0028,-0.0029,0.0029,0.0032,0.0034,0.0037,-0.0004,-0.0008,-0.0011,0,0,0,0,0,0,0,0,0,0,0,0,0,0.0082,0.0125,0.0009,0.0033,0.0035,-0.0028,-0.0028,-0.0029,0.0029,0.0032,0.0035,0.0038,-0.0003,-0.0007,-0.0012,-0.01,0,0,-0.0025,-0.0027,0,0,0,0,0,0,0,0,0.0085,0.0078,0.003,0.0031,0.0033,0.0009,-0.0001,-0.0053,0.0028,0.0031,0.0036,0.0039,-0.0003,-0.0008,-0.0021,-0.0102,-0.0104,-0.0026,-0.0029,-0.003,-0.0032,0,0,0,0,0,0,0,0.0088,0.0079,-0.0006,0.0029,0.0031,0.0045,0.0042,-0.0011,-0.0003,0.0031,0.0035,0.003,-0.0002,-0.0017,-0.0022,-0.0105,-0.0026,-0.003,-0.0032,-0.0034,-0.0258,-0.0262,0,0,0,0,0,0,0.0088,0.0082,-0.0005,-0.0007,0.0067,0.004,0.0037,0.0013,-0.0002,-0.0001,0.0028,0.0033,-0.0011,-0.0017,-0.0023,-0.0127,-0.003,-0.0035,-0.0037,-0.0255,-0.0259,-0.0263,0,0,0,0,0,0,0.0091,0.008,-0.0003,0.0039,0.0029,0.0035,0.0008,0.0011,-0.0004,-0.0005,-0.0003,0.0011,-0.0009,-0.0017,-0.0081,-0.0128,-0.0037,-0.0041,-0.0251,-0.0256,-0.0261,-0.0337,0,0,0,0,0,0,0.0094,0.008,0.0047,0.0037,0.0027,-0.0061,0.0005,0.0008,-0.0012,-0.0005,-0.002,-0.002,-0.0007,-0.0075,-0.0085,-0.0132,-0.0044,-0.0247,-0.0254,-0.0259,-0.033,-0.0344,-0.0355,0,0,0,0,0,0.0098,0.0026,0.0045,0.0034,-0.0015,-0.0063,-0.007,-0.0053,-0.0016,-0.0049,-0.0049,-0.0019,-0.012,-0.0082,-0.0093,-0.0142,-0.0244,-0.0252,-0.0259,-0.0325,-0.0341,-0.0355,0,0,0,0,0,0,0.0028,0.0025,0.0046,-0.0031,-0.0047,-0.0053,-0.0096,-0.0071,-0.0099,-0.0092,-0.007,-0.0074,-0.0143,-0.0148,-0.0105,-0.0228,-0.0176,-0.0186,-0.0222,-0.0238,-0.025,-0.0248,-0.0048,0,0,0,0,0,0.0004,-0.0034,-0.0035,-0.0103,-0.0112,-0.0102,-0.0123,-0.0108,-0.0124,-0.0131,-0.0136,-0.0154,-0.0189,-0.0214,-0.0246,-0.033,-0.0332,-0.0369,-0.0382,-0.0392,-0.0402,-0.0446,-0.0462,-0.0287,-0.0287,-0.0287,0,0,-0.0047,-0.0053,-0.0079,-0.0117,-0.0128,-0.0168,-0.0109,-0.0155,-0.0185,-0.0139,-0.0199,-0.0203,-0.0221,-0.0296,-0.0328,-0.0303,-0.045,-0.0401,-0.041,-0.0414,-0.0455,-0.0472,-0.0486,-0.0292,-0.0291,-0.029,0,0,-0.016,-0.0169,-0.0226,-0.0237,-0.0253,-0.0246,-0.026,-0.0269,-0.027,-0.033,-0.0295,-0.0331,-0.0393,-0.0407,-0.0422,-0.0538,-0.0512,-0.0549,-0.0616,-0.0659,-0.0673,-0.0685,-0.0727,-0.0742,-0.0558,-0.0558,-0.0559,0,-0.0222,-0.0281,-0.0259,-0.0306,-0.0324,-0.0281,-0.0339,-0.0352,-0.0379,-0.0392,-0.0362,-0.0437,-0.0447,-0.0523,-0.0551,-0.0565,-0.058,-0.0549,-0.0672,-0.0684,-0.0695,-0.0735,-0.0751,-0.0563,-0.0562,-0.0562,-0.0562,0,-0.0356,-0.0398,-0.0442,-0.0467,-0.0489,-0.0542,-0.0527,-0.0553,-0.0535,-0.0531,-0.0592,-0.0601,-0.0635,-0.0651,-0.0635,-0.0725,-0.0708,-0.0676,-0.0624,-0.0717,-0.0754,-0.0769,-0.0569,-0.0568,-0.0566,-0.0565,0,0,-0.0519,-0.0528,-0.0545,-0.0555,-0.0569,-0.0601,-0.065,-0.0682,-0.0704,-0.0723,-0.0765,-0.0816,-0.0786,-0.0803,-0.0788,-0.0825,-0.0916,-0.0788,-0.0788,-0.0812,-0.1016,-0.1042,-0.106,-0.0897,-0.09,-0.0902,-0.1015,0,-0.0632,-0.0718,-0.0697,-0.0783,-0.082,-0.0779,-0.0822,-0.0836,-0.0832,-0.0864,-0.086,-0.0898,-0.0854,-0.0864,-0.0899,-0.0898,-0.0957,-0.0889,-0.0937,-0.0939,-0.0936,-0.1079,-0.1107,-0.1213,-0.1029,-0.1031,-0.1033,0,-0.0777,-0.08,-0.0888,-0.0894,-0.0909,-0.0949,-0.0975,-0.1005,-0.1019,-0.1014,-0.1032,-0.1008,-0.1057,-0.1003,-0.1071,-0.1025,-0.1043,-0.1045,-0.1048,-0.1054,-0.0994,-0.109,-0.1246,-0.1263,-0.1056,-0.1054,-0.1052,0,-0.0888,-0.094,-0.1,-0.101,-0.1018,-0.1046,-0.1051,-0.1061,-0.1081,-0.1103,-0.1116,-0.1144,-0.116,-0.1183,-0.1167,-0.1129,-0.1238,-0.1182,-0.1236,-0.1237,-0.1263,-0.1262,-0.1426,-0.1272,-0.1272,-0.1271,-0.1271,0,-0.1018,-0.1074,-0.1049,-0.1086,-0.1147,-0.1123,-0.1184,-0.1184,-0.1193,-0.1229,-0.1194,-0.1229,-0.1206,-0.1239,-0.1227,-0.1285,-0.1292,-0.129,-0.1286,-0.1294,-0.1295,-0.1307,-0.13,-0.1276,-0.1275,-0.1274,-0.1273,0,-0.1153,-0.1139,-0.1201,-0.1202,-0.1203,-0.1249,-0.125,-0.1284,-0.1276,-0.1323,-0.1332,-0.1321,-0.1358,-0.1344,-0.1383,-0.1375,-0.1449,-0.1435,-0.1445,-0.1442,-0.1497,-0.1492,-0.1676,-0.1699,-0.1529,-0.1531,-0.1532,0,-0.1238,-0.128,-0.1285,-0.1306,-0.1313,-0.1347,-0.1366,-0.1343,-0.1364,-0.1381,-0.1413,-0.1446,-0.1472,-0.1532,-0.1528,-0.1557,-0.1545,-0.1607,-0.1549,-0.1555,-0.1547,-0.1545,-0.1549,-0.162,-0.1621,-0.1623,-0.1624,0,-0.1391,-0.1381,-0.1409,-0.1435,-0.1458,-0.1477,-0.1493,-0.1513,-0.1489,-0.1515,-0.1551,-0.1571,-0.1609,-0.1643,-0.1668,-0.1673,-0.1646,-0.1642,-0.1656,-0.1666,-0.167,-0.1669,-0.1478,-0.1639,-0.1637,-0.1636,-0.1635,-0.1635,-0.1505,-0.154,-0.1548,-0.158,-0.1589,-0.1604,-0.1636,-0.1632,-0.1661,-0.169,-0.1674,-0.1716,-0.1726,-0.1758,-0.1766,-0.1799,-0.1775,-0.1795,-0.1801,-0.1807,-0.1814,-0.1662,-0.1803,-0.1803,-0.1802,-0.1802,-0.1802,0,-0.1657,-0.1659,-0.1689,-0.1712,-0.1737,-0.1705,-0.1721,-0.1744,-0.1782,-0.1793,-0.1818,-0.1859,-0.189,-0.1887,-0.1916,-0.1943,-0.1931,-0.1951,-0.195,-0.1952,-0.1834,-0.1819,-0.196,-0.196,-0.196,-0.196,-0.196,-0.196,-0.1739,-0.1796,-0.1787,-0.1848,-0.185,-0.189,-0.1901,-0.1915,-0.1924,-0.1971,-0.1996,-0.1993,-0.1999,-0.2027,-0.2054,-0.2053,-0.2066,-0.2091,-0.2085,-0.1976,-0.196,-0.1945,-0.1931,-0.2094,-0.2094,-0.22,-0.2201,-0.2202]},{"header":{"parameterUnit":"m.s-1","parameterCategory":1,"la1":30.2991,"la2":30.254,"lo1":-89.0895,"lo2":-89.0444,"dy":0.0017,"dx":0.0017,"nx":28,"ny":28,"refTime":"2025-03-19T09:00:00:Z","depth":0,"parameterNumber":3,"parameterNumberName":"V-component_of_WINDS"},"data":[0,0,0,0,0,0,0,0,0,0,0,0,0,0,0,0,0,0,0,0,0,0,0,0,0,0,0,0,0,0,0,0,0,0,0,0,0,0,0,0,0,0,0,0,0,0,0,0,0,0,0,0,0,0,0,0,0,0,-4.6381,-4.6383,0,-4.6556,-4.6558,-4.656,-4.6485,-4.648,-4.6476,-4.6472,-4.6648,-4.6656,-4.6665,0,0,0,0,0,0,0,0,0,0,0,0,0,-4.5977,-4.5984,-4.6381,-4.6383,-4.6385,-4.6556,-4.6558,-4.656,-4.6485,-4.648,-4.6475,-4.647,-4.6645,-4.6655,-4.6666,0,0,0,0,0,0,0,0,0,0,0,0,0,-4.6152,-4.5987,-4.638,-4.6368,-4.6369,-4.6555,-4.6558,-4.6561,-4.6486,-4.648,-4.6474,-4.6468,-4.6642,-4.6654,-4.6667,-4.6874,0,0,-4.6707,-4.6712,0,0,0,0,0,0,0,0,-4.6142,-4.6167,-4.6368,-4.6369,-4.6371,-4.6492,-4.648,-4.6666,-4.6488,-4.6442,-4.6472,-4.6465,-4.6601,-4.6617,-4.6663,-4.6882,-4.689,-4.6708,-4.6716,-4.6721,-4.6725,0,0,0,0,0,0,0,-4.613,-4.6159,-4.645,-4.6371,-4.6373,-4.6353,-4.637,-4.6515,-4.6555,-4.6445,-4.644,-4.6462,-4.66,-4.6651,-4.6667,-4.6893,-4.6707,-4.6719,-4.6727,-4.6732,-4.7289,-4.7295,0,0,0,0,0,0,-4.6118,-4.6149,-4.6444,-4.6455,-4.6238,-4.6365,-4.6385,-4.6459,-4.6553,-4.6561,-4.6467,-4.6458,-4.6632,-4.6652,-4.6673,-4.6921,-4.6721,-4.6733,-4.6741,-4.7282,-4.729,-4.7298,0,0,0,0,0,0,-4.611,-4.6146,-4.6437,-4.6301,-4.6337,-4.6379,-4.6463,-4.6466,-4.6517,-4.657,-4.6576,-4.6512,-4.6628,-4.6655,-4.6825,-4.6926,-4.6739,-4.6751,-4.7273,-4.7284,-4.7294,-4.742,0,0,0,0,0,0,-4.6099,-4.6143,-4.6223,-4.6303,-4.6344,-4.6588,-4.6469,-4.6474,-4.654,-4.6529,-4.6614,-4.6621,-4.6625,-4.6806,-4.6838,-4.6941,-4.6761,-4.7264,-4.7278,-4.7291,-4.7407,-4.7433,-4.7456,0,0,0,0,0,-4.6085,-4.6251,-4.6228,-4.6264,-4.6446,-4.6594,-4.6617,-4.6619,-4.6548,-4.6629,-4.6662,-4.6619,-4.691,-4.6824,-4.6859,-4.6968,-4.7258,-4.7274,-4.729,-4.7396,-4.7428,-4.7456,0,0,0,0,0,0,-4.6181,-4.6262,-4.6237,-4.6434,-4.6508,-4.6581,-4.6683,-4.6653,-4.6748,-4.6734,-4.673,-4.675,-4.6926,-4.6963,-4.6866,-4.7172,-4.7073,-4.7097,-4.7142,-4.7173,-4.7197,-4.7184,-4.6772,0,0,0,0,0,-4.6226,-4.6341,-4.6404,-4.6572,-4.6611,-4.6641,-4.6705,-4.67,-4.6776,-4.6806,-4.6852,-4.6926,-4.7034,-4.7105,-4.7208,-4.7411,-4.7428,-4.7503,-4.7528,-4.7548,-4.7568,-4.7678,-4.7712,-4.735,-4.735,-4.7349,0,0,-4.6319,-4.6377,-4.6449,-4.6593,-4.665,-4.6768,-4.6667,-4.6796,-4.6883,-4.6825,-4.6989,-4.7025,-4.7107,-4.7295,-4.738,-4.7332,-4.7672,-4.7568,-4.7584,-4.7593,-4.7698,-4.7732,-4.7762,-4.736,-4.7358,-4.7357,0,0,-4.6548,-4.6604,-4.675,-4.6809,-4.6896,-4.6914,-4.6949,-4.7027,-4.7049,-4.7214,-4.7172,-4.7275,-4.7461,-4.7521,-4.7576,-4.7827,-4.779,-4.786,-4.7989,-4.8096,-4.8124,-4.8149,-4.8238,-4.827,-4.788,-4.788,-4.7881,0,-4.6652,-4.683,-4.6829,-4.6961,-4.7025,-4.6979,-4.7126,-4.7182,-4.7298,-4.7343,-4.7287,-4.7519,-4.7571,-4.7772,-4.7833,-4.7879,-4.7918,-4.7851,-4.812,-4.8146,-4.8169,-4.8254,-4.8288,-4.7888,-4.7887,-4.7887,-4.7886,0,-4.6953,-4.7076,-4.7184,-4.7298,-4.7373,-4.7513,-4.7531,-4.7608,-4.7596,-4.7619,-4.7786,-4.7847,-4.796,-4.8007,-4.7997,-4.8207,-4.8174,-4.812,-4.802,-4.8212,-4.8291,-4.8324,-4.79,-4.7897,-4.7894,-4.7893,0,0,-4.725,-4.7361,-4.74,-4.7451,-4.7543,-4.7637,-4.7773,-4.7885,-4.7951,-4.8031,-4.8145,-4.8303,-4.8253,-4.8315,-4.831,-4.8404,-4.8598,-4.8338,-4.834,-4.8384,-4.8832,-4.8873,-4.891,-4.8574,-4.858,-4.8585,-4.8825,0,-4.7486,-4.7726,-4.7729,-4.7949,-4.8062,-4.8019,-4.8137,-4.8206,-4.8231,-4.833,-4.8357,-4.8469,-4.8395,-4.8432,-4.8523,-4.8555,-4.8688,-4.8538,-4.8678,-4.8683,-4.8659,-4.8952,-4.8996,-4.922,-4.8856,-4.8861,-4.8865,0,-4.7794,-4.7886,-4.8118,-4.8193,-4.824,-4.8347,-4.8449,-4.8544,-4.862,-4.8631,-4.8701,-4.8682,-4.8818,-4.8714,-4.8902,-4.88,-4.8857,-4.8881,-4.889,-4.8903,-4.8786,-4.8973,-4.9291,-4.9325,-4.8914,-4.891,-4.8907,0,-4.7987,-4.8168,-4.8331,-4.8375,-4.8467,-4.8542,-4.8583,-4.8653,-4.872,-4.8808,-4.8851,-4.8954,-4.9011,-4.909,-4.9098,-4.9021,-4.9287,-4.9183,-4.9299,-4.9299,-4.9358,-4.9354,-4.9689,-4.9394,-4.9394,-4.9393,-4.9392,0,-4.8251,-4.8395,-4.8419,-4.8519,-4.8677,-4.8678,-4.8835,-4.8869,-4.8931,-4.9035,-4.9003,-4.9102,-4.9107,-4.9207,-4.9214,-4.9368,-4.9393,-4.9406,-4.9406,-4.9409,-4.9408,-4.9447,-4.9431,-4.9402,-4.94,-4.9398,-4.9397,0,-4.8494,-4.8516,-4.869,-4.8762,-4.8783,-4.8897,-4.8958,-4.9052,-4.9074,-4.9206,-4.9237,-4.9271,-4.9388,-4.9403,-4.9539,-4.9544,-4.9729,-4.9712,-4.9704,-4.9701,-4.9817,-4.9806,-5.0189,-5.0239,-4.9911,-4.9914,-4.9917,0,-4.8662,-4.8771,-4.8855,-4.8923,-4.8969,-4.9079,-4.9147,-4.9151,-4.9223,-4.9317,-4.9399,-4.9513,-4.9603,-4.9791,-4.9827,-4.993,-4.9916,-5.0043,-4.9931,-4.9931,-4.9918,-4.9911,-4.9922,-5.0065,-5.0068,-5.0071,-5.0074,0,-4.8957,-4.8962,-4.9062,-4.9166,-4.9248,-4.933,-4.9406,-4.9464,-4.9477,-4.9559,-4.9678,-4.9748,-4.9887,-4.9999,-5.0101,-5.0141,-5.011,-5.0108,-5.0141,-5.0146,-5.0136,-5.0143,-4.9763,-5.01,-5.0097,-5.0095,-5.0094,-5.0093,-4.9167,-4.9262,-4.9336,-4.9448,-4.9506,-4.9578,-4.9671,-4.9704,-4.9804,-4.9918,-4.9913,-5.0044,-5.0115,-5.0248,-5.0296,-5.0397,-5.0355,-5.0402,-5.0414,-5.0426,-5.0437,-5.012,-5.0415,-5.0415,-5.0414,-5.0413,-5.0413,0,-4.946,-4.9505,-4.9608,-4.9717,-4.9805,-4.9768,-4.9851,-4.9926,-5.0042,-5.0112,-5.0202,-5.0338,-5.0446,-5.049,-5.0596,-5.0669,-5.0657,-5.0696,-5.0691,-5.0701,-5.0469,-5.043,-5.0704,-5.0704,-5.0704,-5.0704,-5.0704,-5.0704,-4.9623,-4.9782,-4.9796,-4.9982,-5.0025,-5.0155,-5.0205,-5.0271,-5.0326,-5.048,-5.0571,-5.0599,-5.0657,-5.0767,-5.0864,-5.0874,-5.0915,-5.0961,-5.0964,-5.0747,-5.0717,-5.0689,-5.0653,-5.097,-5.097,-5.1188,-5.119,-5.1192]}]]